Weather in Charleston

United States     32°51′05″N   79°58′15″W
temp.,
°C
wind,
m/s
gust,
m/s
humid.,
%
clouds,
%
prec.,
mm/h
press.,
hPa
HPBL,
m
18 september, sat
sat1823:00+23wnw119482 1.7 101931
02:00+23wnw11956 1.8 101726
05:00+23n2294100 0.1 101860
08:00+23nne2592100 0.1 1018171
11:00+28ne346462 0.0 1019772
14:00+30ese4457100 0.0 10171307
17:00+28e456586 0.0 1016726
20:00+25ese248085 0.0 1017166
19 september, sun
sun1923:00+24ese228278 0.0 101890
02:00+23e228815 0.9 101754
05:00+23ne2389100 0.1 101788
08:00+24ne2686100 0.2 1018228
11:00+28e4664100 0.1 10191128
14:00+28e5762100 0.1 10181165
17:00+28e5765100 0.0 10171091
20:00+26e4876100 0.0 1017710
20 september, mon
mon2023:00+26e4878100 0.1 1018527
02:00+26ese497874 0.2 1018618
05:00+24e4985100 1.0 1018463
08:00+25e5979100 1.6 1019666
11:00+26e6979100 2.0 10201001
14:00+26e5981100 5.1 1019890
17:00+25ese51086100 6.0 1018603
20:00+24ese4993100 15.8 1019451
21 september, tue
tue2123:00+24ese4895100 13.1 1019468
02:00+24ese3893100 21.3 1018396
05:00+24ese4893100 7.3 1018424
08:00+24ese3794100 17.6 1018331
11:00+24ese2696100 8.4 1019256
14:00+24ese2491100 8.9 1018243
17:00+24se2491100 0.8 1017145
20:00+23ssw2393100 2.0 1017106
22 september, wed
wed2223:00+23s1192100 0.0 101757
02:00+23sse1190100 0.1 101667
05:00+22ne119215 0.4 101550
08:00+23ene029261 5.9 1014113
11:00+25ese1384100 2.6 1014346
14:00+28ssw117239 6.2 1012794
17:00+27nw347923 2.3 1011558
20:00+24n22880 2.7 101255